This demonstration page uses our WeatherBlox Daily Observations layout. Learn more.

Left ArrowRight Arrow

Hourly Observations for July 30, 2016

Temp ( °F °C ) Dew Point ( °F °C ) Humidity (%) Winds ( mph kmh ) Pressure ( in mb ) Visibility ( mi km ) Precip ( " mm )
12:59 am 00:59 Partly Cloudy 77 25 72 22.2 85 85 Calm 29.96 1015 10 16 0.00 0.00
1:59 am 01:59 Partly Cloudy 77 25 73 22.8 88 88 Calm 29.95 1014 10 16 0.00 0.00
2:59 am 02:59 Partly Cloudy 76 24.4 72 22.2 88 88 Calm 29.95 1014 10 16 0.00 0.00
3:59 am 03:59 Partly Cloudy 75 23.9 72 22.2 90 90 Calm 29.95 1014 9 14 0.00 0.00
4:59 am 04:59 Partly Cloudy 76 24.4 72 22.2 88 88 S 3 6 29.95 1014 10 16 0.00 0.00
5:59 am 05:59 Mostly Clear 74 23.3 72 22.2 94 94 Calm 29.97 1015 9 14 0.00 0.00
6:59 am 06:59 Partly Cloudy 77 25 73 22.8 88 88 Calm 29.98 1015 9 14 0.00 0.00
7:59 am 07:59 Partly Cloudy 82 27.8 72 22.2 72 72 SE 3 6 30.00 1016 10 16 0.00 0.00
8:59 am 08:59 Mostly Cloudy 85 29.4 71 21.7 63 63 E 3 6 30.01 1016 10 16 0.00 0.00
9:59 am 09:59 Mostly Cloudy 88 31.1 71 21.7 57 57 VRB 6 9 30.00 1016 10 16 0.00 0.00
10:59 am 10:59 Mostly Cloudy 88 31.1 74 23.3 63 63 ENE 8 13 30.01 1016 10 16 0.00 0.00
11:59 am 11:59 Mostly Cloudy 90 32.2 74 23.3 59 59 ENE 13 20 30.00 1016 10 16 0.00 0.00
12:59 pm 12:59 Cloudy 88 31.1 74 23.3 63 63 ESE 14 22 29.99 1016 10 16 0.00 0.00
1:59 pm 13:59 Cloudy 85 29.4 74 23.3 70 70 ESE 13 20 29.97 1015 10 16 0.00 0.00
2:24 pm 14:24 Cloudy with Thunderstorms 79 26.1 76 24.4 90 90 SE 6 9 29.97 1015 3 4 0.08 2.03
2:29 pm 14:29 Cloudy with Strong Thunderstorms 79 26.1 76 24.4 90 90 SE 10 17 29.97 1015 1 2 0.13 3.30
2:34 pm 14:34 Cloudy with Strong Thunderstorms 78 25.6 76 24.4 93 93 SE 14 22 29.97 1015 1 1 0.17 4.32
2:59 pm 14:59 Cloudy with Strong Thunderstorms 75 23.9 72 22.2 90 90 WSW 18 30 30.02 1017 1 1 0.48 12.19
3:25 pm 15:25 Cloudy with Strong Thunderstorms 74 23.3 72 22.2 94 94 ENE 6 9 30.00 1016 1 2 0.30 7.62
3:34 pm 15:34 Cloudy with Thunderstorms 75 23.9 73 22.8 94 94 E 8 13 30.00 1016 2 3 0.39 9.91
3:42 pm 15:42 Cloudy with Thunderstorms 76 24.4 74 23.3 94 94 SE 10 17 30.00 1016 5 8 0.47 11.94
3:59 pm 15:59 Cloudy with Thunderstorms 77 25 75 23.9 94 94 SE 7 11 29.98 1015 6 10 0.61 15.49
4:59 pm 16:59 Cloudy with Thunderstorms 77 25 75 23.9 94 94 S 6 9 29.98 1015 6 10 0.19 4.83
5:21 pm 17:21 Mostly Cloudy with Light Rain 76 24.4 72 22.2 88 88 SSE 10 17 29.97 1015 8 13 0.01 0.25
5:59 pm 17:59 Mostly Cloudy with Light Rain 76 24.4 74 23.3 94 94 S 7 11 29.97 1015 6 10 0.01 0.25
6:59 pm 18:59 Mostly Cloudy with Light Rain 77 25 75 23.9 94 94 SSW 6 9 29.97 1015 4 6 0.04 1.02
7:59 pm 19:59 Mostly Cloudy 76 24.4 73 22.8 91 91 S 5 7 29.94 1014 10 16 0.05 1.27
8:59 pm 20:59 Mostly Cloudy 75 23.9 73 22.8 94 94 SSW 3 6 29.95 1014 9 14 0.00 0.00
9:59 pm 21:59 Mostly Cloudy 76 24.4 73 22.8 91 91 Calm 29.98 1015 9 14 0.00 0.00
10:59 pm 22:59 Cloudy 75 23.9 73 22.8 94 94 Calm 29.98 1015 10 16 0.00 0.00
11:59 pm 23:59 Cloudy 76 24.4 73 22.8 91 91 Calm 29.99 1016 10 16 0.00 0.00

Powered by AerisWeather